Theta_e
302 302 302 302 302 302 303 304 302 302 300 298 296 293 293 293 290 290 289 289 289 289 291 292 292 292 294 295 295 295 294 295 294 295 296 296 297 297 297 297 297 297 297 297
303 301 300 302 302 304 303 302 302 301 301 298 295 293 295 291 292 290 289 289 288 290 291 291 291 292 295 295 294 294 293 293 293 295 295 296 296 297 297 297 297 297 297 297
302 302 301 304 300 300 302 303 301 300 300 298 298 298 293 292 290 290 290 288 289 290 291 291 291 292 295 295 294 293 292 292 293 294 294 295 295 297 297 297 297 297 296 296
301 301 301 301 301 300 302 299 299 301 301 301 299 302 292 289 290 290 288 288 289 291 291 291 291 293 295 294 293 292 292 292 293 293 293 294 295 296 296 297 297 297 296 296
303 300 299 299 300 299 299 298 300 301 300 300 301 300 291 289 290 290 289 289 290 291 290 290 291 293 294 293 292 292 292 292 292 292 292 293 294 295 295 297 296 296 295 295
301 300 299 300 298 299 297 301 301 300 300 303 297 298 290 290 290 290 290 290 290 291 290 290 291 294 294 293 292 291 292 292 292 292 293 293 293 293 295 296 295 295 295 296
303 301 299 298 297 297 294 296 299 300 299 300 294 295 291 290 290 289 289 290 290 290 290 290 290 294 293 293 292 291 292 292 292 292 293 292 292 293 295 294 295 294 295 296
304 307 299 298 296 295 294 294 296 299 297 296 296 297 293 291 289 289 289 290 290 290 290 290 292 294 293 292 292 292 292 292 292 292 292 292 292 293 294 294 294 294 294 295
303 303 300 297 295 294 295 293 294 296 296 295 294 292 291 290 289 289 290 290 290 290 290 290 292 294 293 292 292 292 291 292 292 292 292 292 291 292 293 295 293 293 293 294
299 304 299 299 297 295 293 293 294 293 292 294 291 292 292 290 290 289 290 290 289 290 289 289 292 294 292 292 291 291 291 292 292 292 291 291 291 291 291 293 292 292 293 294
299 300 301 298 295 295 293 292 291 291 291 290 291 292 288 290 289 288 289 289 289 289 289 289 292 293 292 291 291 291 291 292 292 292 291 290 290 290 290 291 291 291 292 293
299 296 300 298 295 294 293 293 290 293 290 289 287 292 291 289 287 288 290 289 289 289 289 289 292 293 291 291 291 291 291 291 292 291 290 290 290 290 290 290 290 291 291 292
299 298 303 302 298 296 296 293 291 289 288 289 288 291 289 287 288 289 289 289 288 289 289 290 292 293 291 291 291 291 291 291 291 291 290 290 290 290 290 290 290 290 291 291
298 295 301 305 303 296 296 295 292 290 287 286 290 290 290 288 289 289 289 288 288 289 289 290 292 293 291 291 291 291 291 291 291 291 290 290 290 290 290 290 290 290 290 291
297 299 297 297 296 296 296 295 293 288 290 289 290 289 289 288 288 289 288 287 288 289 289 291 292 293 292 291 291 291 291 291 291 291 290 290 290 290 290 290 290 290 289 290
294 298 297 298 296 295 295 294 293 293 292 289 290 290 288 289 289 289 287 287 288 288 288 292 292 293 292 291 291 291 291 291 291 291 290 290 291 291 291 291 290 290 289 289
295 295 296 301 296 295 299 296 293 293 291 291 290 290 290 290 291 289 288 287 287 288 288 292 292 292 292 291 291 291 291 291 291 291 290 290 291 291 291 291 290 290 290 289
295 295 293 296 297 303 299 293 293 293 291 289 291 291 291 290 290 288 287 287 287 287 287 291 292 291 291 291 291 291 292 291 292 291 290 290 290 291 291 291 290 290 290 290
293 293 290 298 298 300 296 292 292 292 291 290 291 291 291 290 286 287 287 287 287 286 290 291 291 291 291 291 291 291 291 291 292 291 290 290 291 291 292 291 291 290 290 290
294 292 296 288 299 305 300 292 290 290 291 290 291 291 292 288 285 285 286 287 287 287 291 291 291 291 291 291 290 291 291 291 292 291 290 290 291 292 291 292 291 291 291 290
292 288 293 294 294 299 295 291 291 295 295 289 290 290 291 288 286 286 287 286 288 289 291 291 291 291 291 291 290 291 291 291 292 291 290 290 290 292 292 292 292 290 290 291
299 295 293 289 293 306 290 290 293 291 289 290 290 290 289 288 288 287 285 286 287 291 290 290 290 291 291 291 291 291 291 292 291 290 290 289 290 291 292 292 292 291 290 290
299 299 301 300 301 292 290 292 290 289 289 290 289 289 288 289 287 285 285 286 288 291 290 289 290 290 290 291 291 291 291 291 291 290 290 289 289 289 291 292 292 292 291 291
294 293 295 297 295 292 290 291 289 289 289 289 288 288 288 287 286 285 285 286 289 291 290 289 290 290 290 290 291 291 291 291 291 291 290 289 289 289 289 291 291 292 292 291
293 292 293 293 291 291 290 289 289 290 290 288 289 289 287 286 286 286 286 287 289 290 290 289 289 290 290 290 290 291 291 291 291 291 290 289 289 289 289 289 290 291 291 292
289 293 296 301 293 294 291 290 289 290 289 288 288 287 287 286 286 286 287 288 290 290 289 289 289 290 290 290 291 291 291 291 291 290 291 289 289 289 289 289 289 289 290 291
Wind_Speed
7 10 4 4 1 6 3 1 3 2 2 4 5 6 4 3 8 11 11 13 14 15 23 25 28 29 31 30 30 30 33 31 32 30 29 31 30 31 30 28 29 29 28 28
6 6 5 4 7 2 3 4 2 2 2 5 5 4 2 3 4 4 8 12 13 16 17 27 29 29 30 30 31 30 33 31 31 29 32 29 31 33 32 26 28 28 26 28
8 3 6 2 5 6 2 2 2 3 3 5 7 1 2 3 4 7 12 8 10 16 18 22 29 29 30 28 31 30 31 31 32 33 32 32 33 28 26 28 29 29 27 27
7 5 5 5 4 3 1 2 3 6 5 3 1 3 4 6 10 12 11 11 13 16 16 24 28 28 31 28 31 32 29 31 32 34 34 32 30 30 33 31 31 32 28 27
1 6 6 6 3 2 6 4 1 4 3 4 1 2 3 5 9 17 14 14 15 16 16 19 27 26 29 30 33 31 29 29 29 33 31 31 29 29 32 30 31 29 28 27
2 2 4 3 5 1 6 2 5 4 2 2 1 3 2 5 11 14 12 15 16 16 16 24 27 28 28 29 31 30 30 29 30 33 33 33 31 33 32 32 30 29 27 27
4 3 5 3 5 5 10 6 3 3 3 2 2 1 3 5 7 6 14 16 16 16 17 21 25 30 30 32 32 31 32 33 33 33 34 34 34 32 29 32 29 30 27 26
3 3 6 8 3 3 5 3 4 4 4 5 4 2 3 5 6 7 8 10 13 16 15 20 25 29 29 31 32 33 33 34 32 32 35 33 33 31 29 31 31 28 27 29
3 1 1 4 3 2 4 6 1 2 1 2 2 2 1 7 10 12 11 13 15 16 16 18 25 26 29 29 32 34 33 33 31 32 35 33 33 32 31 29 32 31 31 31
3 2 2 3 1 6 7 2 2 4 3 6 3 3 3 9 12 12 15 16 16 16 16 20 24 25 28 28 31 32 32 32 31 33 33 33 33 32 31 29 33 33 34 34
2 2 1 2 6 1 5 3 6 5 2 3 2 5 6 4 7 9 11 13 16 17 16 18 24 25 28 27 30 32 33 33 33 34 33 33 33 33 34 31 33 34 34 35
1 4 2 1 1 3 2 3 3 4 4 2 3 6 6 3 6 6 11 12 14 14 14 21 24 25 27 29 31 32 33 33 33 34 33 33 34 33 33 34 32 33 34 35
4 2 2 1 1 2 1 2 4 5 3 4 4 6 3 4 8 8 9 12 14 15 15 19 24 24 27 29 31 32 34 34 34 34 33 33 33 34 32 33 34 34 33 35
2 3 4 5 3 3 3 4 4 4 3 3 6 8 9 9 8 10 10 11 14 13 14 14 20 23 26 29 30 32 34 35 34 33 32 32 33 32 33 34 36 35 34 33
2 2 2 1 2 2 3 4 7 5 5 5 2 6 7 5 7 7 7 9 13 14 14 13 16 22 27 29 30 32 34 35 35 32 32 32 32 32 34 35 35 36 36 35
2 3 1 1 2 1 4 6 7 6 3 7 6 9 4 5 5 5 7 11 14 15 15 14 21 23 24 29 30 31 34 34 35 32 31 31 32 32 33 34 37 36 35 37
2 5 3 2 3 4 7 6 9 4 4 6 5 6 2 5 8 7 8 9 12 13 14 15 20 22 23 28 29 30 33 33 33 31 32 31 33 32 33 32 33 36 35 35
5 4 2 2 2 3 2 2 2 6 5 7 3 3 2 4 6 6 4 6 11 12 11 18 19 22 22 26 28 30 32 31 30 31 31 33 34 33 33 32 29 29 32 34
3 5 2 3 2 6 1 4 5 5 5 7 6 3 2 4 4 2 2 5 8 13 15 17 19 21 22 25 28 31 29 30 28 30 31 31 31 32 33 32 28 26 26 29
5 6 4 3 2 4 1 3 4 4 4 8 6 3 2 3 4 4 6 12 15 18 15 17 18 19 20 25 27 27 28 29 29 32 31 28 27 28 28 30 31 28 23 25
2 3 4 2 3 8 3 6 4 4 4 6 7 5 4 2 4 5 13 13 16 14 17 19 18 17 19 24 27 25 27 28 29 31 29 26 24 27 25 23 32 31 26 23
7 6 3 3 2 5 7 5 7 3 3 6 5 6 5 4 2 4 8 11 15 12 17 18 18 18 19 24 24 25 26 28 27 30 28 26 23 23 25 23 21 24 31 26
2 6 4 8 5 1 10 1 4 5 6 6 6 5 5 4 1 4 5 10 13 12 14 17 15 17 18 22 24 23 27 27 27 30 29 27 23 21 20 23 21 22 23 24
3 3 2 2 2 5 8 2 6 5 6 6 6 6 5 4 1 2 6 9 11 12 14 17 17 16 18 20 23 25 25 25 24 29 29 27 26 22 20 18 22 20 23 23
4 6 6 5 4 1 5 6 8 7 9 8 10 7 7 6 2 1 4 8 10 11 13 15 16 15 18 21 22 25 27 23 23 26 28 28 26 24 24 20 16 19 22 23
6 8 6 6 9 5 5 14 11 10 9 11 8 7 7 5 3 1 4 7 9 10 13 14 17 17 20 20 21 23 26 22 22 22 29 27 25 24 23 24 22 16 14 16
Wind_Direction
19 61 37 314 239 252 277 114 93 98 91 100 105 120 129 38 32 6 340 345 337 327 325 341 343 342 344 349 348 344 342 338 337 335 331 328 325 322 317 312 309 309 306 307
38 50 324 286 340 76 122 116 88 68 36 86 125 144 152 51 28 359 325 334 323 331 339 343 345 344 348 347 349 344 344 340 338 335 332 327 325 322 314 312 321 311 309 302
95 299 312 61 26 34 343 166 171 233 122 52 120 162 357 327 323 340 349 314 328 337 339 340 343 343 350 352 349 346 342 340 337 338 335 332 329 330 332 324 325 324 320 313
79 331 17 33 70 31 19 4 253 159 142 204 155 290 350 335 336 347 333 331 336 338 339 340 342 343 349 351 349 344 342 341 340 340 337 334 330 329 329 322 326 323 320 316
253 5 1 30 337 341 249 339 183 132 121 108 180 21 233 359 328 335 337 336 335 337 343 339 341 345 349 349 348 344 345 343 342 338 337 336 329 325 326 328 333 330 329 325
75 24 54 287 304 291 310 148 50 64 91 359 112 162 18 349 312 323 336 338 336 337 339 341 342 350 352 348 347 347 347 349 348 347 343 341 335 332 330 339 337 334 331 328
8 16 333 21 354 15 24 47 330 352 2 248 208 60 218 263 301 307 325 331 333 338 341 343 345 354 355 349 348 346 349 347 347 344 343 342 339 335 333 343 338 334 331 331
54 357 9 342 74 285 9 74 109 291 308 296 295 270 266 206 290 317 312 320 330 338 344 345 344 353 351 349 349 347 347 342 346 347 344 342 344 340 339 346 342 338 335 334
125 298 357 66 55 13 347 45 200 78 79 359 281 272 104 321 348 340 336 336 340 342 344 345 345 351 350 345 347 345 345 345 349 347 345 346 346 343 342 341 349 348 345 341
188 91 36 343 109 36 89 146 41 22 19 306 304 275 242 330 330 334 339 340 340 341 343 346 347 351 351 343 348 346 345 345 350 350 347 346 347 349 351 353 353 350 350 352
122 82 294 19 24 339 355 33 54 108 96 181 313 279 194 258 300 320 324 333 338 339 341 342 344 350 349 348 351 346 347 347 349 349 346 348 352 356 4 358 356 354 352 351
50 120 94 115 69 88 97 132 113 114 270 76 142 278 160 209 282 304 329 332 335 333 338 340 345 349 351 353 350 348 346 350 348 348 349 351 356 357 1 3 360 358 356 355
180 42 24 297 8 352 164 121 101 102 90 200 125 274 178 315 1 341 326 329 334 334 341 344 349 352 352 352 347 346 346 347 348 350 352 353 357 1 4 5 7 7 360 358
104 111 157 192 178 136 186 177 152 121 108 187 226 288 303 332 336 330 329 328 331 335 340 344 348 352 353 353 347 345 345 347 349 351 354 354 357 0 8 14 13 12 4 359
106 138 162 159 126 184 230 184 175 171 178 165 237 235 287 301 308 297 296 321 334 337 342 349 346 346 350 351 349 347 345 348 350 352 355 355 359 7 14 15 12 11 7 2
7 174 121 246 149 252 273 236 194 213 195 260 268 282 191 289 290 317 329 337 339 335 338 346 344 343 346 351 346 344 343 348 353 354 355 358 4 8 15 16 14 12 8 8
92 130 101 274 358 323 302 224 188 184 183 166 216 231 360 321 328 325 326 336 331 326 331 343 341 341 343 351 346 341 339 345 353 357 359 1 7 8 10 15 16 12 10 9
125 99 75 194 358 355 231 45 168 205 210 199 240 243 255 260 273 275 260 309 320 324 326 339 337 339 342 348 346 344 341 348 350 355 356 4 7 8 7 12 15 12 15 17
60 116 62 122 201 291 209 211 168 175 270 189 204 230 252 305 309 347 249 307 306 318 330 338 338 341 345 350 349 344 342 347 350 351 356 4 8 14 10 8 9 8 17 19
64 66 114 73 123 219 190 173 128 104 285 180 177 201 290 23 27 265 311 333 328 329 342 343 343 346 345 352 353 346 345 351 351 350 0 5 10 14 14 18 17 25 22 20
45 16 148 154 233 285 182 145 132 85 253 159 168 169 179 178 196 269 321 332 335 328 348 346 346 347 345 352 355 346 348 353 347 357 3 8 13 17 18 22 26 29 27 18
172 146 182 84 54 308 152 84 169 184 80 145 157 169 185 197 266 293 309 328 331 337 350 352 349 348 350 359 357 349 352 348 351 3 6 9 13 17 21 24 19 25 25 15
244 187 176 181 216 178 195 58 158 151 145 170 155 159 169 172 204 287 309 330 330 343 349 353 353 353 353 358 3 351 352 351 350 6 9 10 15 15 21 26 12 24 24 22
242 167 172 56 199 214 191 130 149 162 142 148 149 150 155 152 193 303 333 333 337 350 354 352 355 354 353 350 6 2 352 353 353 3 9 10 14 13 20 21 26 16 22 23
178 134 172 264 250 60 213 193 166 150 131 132 148 151 152 148 168 315 328 334 334 358 353 357 351 350 347 351 360 3 1 356 356 360 8 10 12 18 20 25 20 23 28 27
188 177 171 219 185 165 200 170 157 149 155 157 150 144 145 147 155 31 345 352 350 358 354 352 358 352 355 355 359 359 5 359 358 357 7 6 8 16 21 23 30 34 29 28